| time (UTC) | temp C | wind direction | speed KPH | gust KPH | rain 1hr cm | rain 24hr cm | rain mn cm | humidity % | barometer mb |
| 20260504070159 | 5 | 74 | 3.2 | 3.2 | 0.00 | 0.00 | 0.00 | 80 | 999.7 |
| 20260504060120 | 6 | 143 | 8.0 | 8.0 | 0.00 | 0.00 | 0.00 | 80 | 999.7 |
| 20260504050548 | 6 | 94 | 3.2 | 4.8 | 0.00 | 0.00 | 0.00 | 78 | 1000.0 |
| 20260504045542 | 6 | 72 | 4.8 | 4.8 | 0.00 | 0.00 | 0.00 | 77 | 1000.2 |
| 20260504045037 | 6 | 73 | 3.2 | 4.8 | 0.00 | 0.00 | 0.00 | 76 | 1000.3 |
| 20260504044535 | 6 | 50 | 4.8 | 4.8 | 0.00 | 0.00 | 0.00 | 75 | 1000.1 |
| 20260504044032 | 6 | 78 | 3.2 | 3.2 | 0.00 | 0.00 | 0.00 | 75 | 1000.2 |
| 20260504043529 | 6 | 80 | 3.2 | 3.2 | 0.00 | 0.00 | 0.00 | 74 | 1000.3 |
| 20260504043026 | 6 | 82 | 3.2 | 4.8 | 0.00 | 0.00 | 0.00 | 73 | 1000.3 |
| 20260504042523 | 6 | 67 | 3.2 | 3.2 | 0.00 | 0.00 | 0.00 | 73 | 1000.4 |
| 20260504042020 | 6 | 76 | 0.0 | 3.2 | 0.00 | 0.00 | 0.00 | 75 | 1000.6 |
| 20260504041516 | 6 | 89 | 3.2 | 6.4 | 0.00 | 0.00 | 0.00 | 76 | 1000.5 |
| 20260504041012 | 5 | 67 | 3.2 | 6.4 | 0.00 | 0.00 | 0.00 | 78 | 1000.6 |
| 20260504040510 | 5 | 71 | 1.6 | 6.4 | 0.00 | 0.00 | 0.00 | 78 | 1000.9 |
| 20260504040007 | 5 | 67 | 3.2 | 8.0 | 0.00 | 0.00 | 0.00 | 78 | 1001.0 |
| 20260504035504 | 5 | 24 | 4.8 | 8.0 | 0.00 | 0.00 | 0.00 | 78 | 1000.8 |
| 20260504034959 | 5 | 76 | 4.8 | 6.4 | 0.00 | 0.00 | 0.00 | 78 | 1000.7 |
| 20260504034457 | 5 | 65 | 4.8 | 6.4 | 0.00 | 0.00 | 0.00 | 77 | 1000.8 |
| 20260504033954 | 5 | 67 | 4.8 | 6.4 | 0.00 | 0.00 | 0.00 | 77 | 1000.6 |
| 20260504033451 | 5 | 65 | 6.4 | 6.4 | 0.00 | 0.00 | 0.00 | 77 | 1000.7 |
| 20260504032948 | 4 | 50 | 3.2 | 4.8 | 0.00 | 0.00 | 0.00 | 77 | 1000.8 |
| 20260504032445 | 4 | 40 | 6.4 | 6.4 | 0.00 | 0.00 | 0.00 | 77 | 1000.6 |
| 20260504031942 | 4 | 37 | 3.2 | 6.4 | 0.00 | 0.00 | 0.00 | 77 | 1000.4 |
| 20260504031439 | 4 | 73 | 6.4 | 6.4 | 0.00 | 0.00 | 0.00 | 77 | 1000.4 |
| 20260504030935 | 3 | 85 | 6.4 | 6.4 | 0.00 | 0.00 | 0.00 | 77 | 1000.2 |
| 20260504030433 | 3 | 73 | 6.4 | 8.0 | 0.00 | 0.00 | 0.00 | 76 | 1000.5 |
| 20260504025928 | 4 | 71 | 6.4 | 8.0 | 0.00 | 0.00 | 0.00 | 75 | 1000.5 |
| 20260504025426 | 5 | 43 | 4.8 | 6.4 | 0.00 | 0.00 | 0.00 | 72 | 1000.3 |
| 20260504024923 | 5 | 64 | 3.2 | 6.4 | 0.00 | 0.00 | 0.00 | 72 | 1000.2 |
| 20260504024420 | 4 | 115 | 3.2 | 4.8 | 0.00 | 0.00 | 0.00 | 73 | 1000.2 |
| 20260504023917 | 5 | 86 | 3.2 | 6.4 | 0.00 | 0.00 | 0.00 | 72 | 1000.4 |
| 20260504023413 | 5 | 101 | 1.6 | 4.8 | 0.00 | 0.00 | 0.00 | 72 | 1000.3 |
| 20260504022908 | 4 | 80 | 3.2 | 6.4 | 0.00 | 0.00 | 0.00 | 74 | 1000.2 |
| 20260504022405 | 4 | 83 | 4.8 | 6.4 | 0.00 | 0.00 | 0.00 | 74 | 1000.2 |
| 20260504021902 | 4 | 70 | 6.4 | 6.4 | 0.00 | 0.00 | 0.00 | 73 | 1000.0 |
| 20260504021359 | 5 | 61 | 4.8 | 6.4 | 0.00 | 0.00 | 0.00 | 69 | 1000.3 |
| 20260504020856 | 5 | 60 | 4.8 | 6.4 | 0.00 | 0.00 | 0.00 | 70 | 1000.3 |
| 20260504020353 | 5 | 53 | 4.8 | 6.4 | 0.00 | 0.00 | 0.00 | 69 | 1000.3 |
| 20260504015849 | 5 | 62 | 3.2 | 4.8 | 0.00 | 0.00 | 0.00 | 68 | 1000.3 |
| 20260504015345 | 6 | 60 | 3.2 | 6.4 | 0.00 | 0.00 | 0.00 | 64 | 1000.3 |
| 20260504014841 | 6 | 73 | 6.4 | 6.4 | 0.00 | 0.00 | 0.00 | 66 | 1000.2 |
| 20260504014337 | 6 | 68 | 4.8 | 6.4 | 0.00 | 0.00 | 0.00 | 64 | 1000.1 |
| 20260504013835 | 6 | 71 | 3.2 | 6.4 | 0.00 | 0.00 | 0.00 | 63 | 1000.1 |
| 20260504013333 | 6 | 69 | 4.8 | 6.4 | 0.00 | 0.00 | 0.00 | 61 | 1000.2 |
| 20260504012829 | 7 | 72 | 4.8 | 6.4 | 0.00 | 0.00 | 0.00 | 59 | 1000.1 |
| 20260504012327 | 7 | 44 | 3.2 | 4.8 | 0.00 | 0.00 | 0.00 | 59 | 1000.1 |
| 20260504011824 | 6 | 76 | 3.2 | 3.2 | 0.00 | 0.00 | 0.00 | 61 | 1000.1 |
| 20260504011321 | 7 | 71 | 3.2 | 4.8 | 0.00 | 0.00 | 0.00 | 59 | 1000.2 |
| 20260504010817 | 7 | 69 | 0.0 | 3.2 | 0.00 | 0.00 | 0.00 | 57 | 1000.1 |
| 20260504010312 | 8 | 63 | 1.6 | 3.2 | 0.00 | 0.00 | 0.00 | 55 | 999.9 |
| 20260504005809 | 8 | 17 | 4.8 | 4.8 | 0.00 | 0.00 | 0.00 | 53 | 1000.0 |
| 20260504005306 | 8 | 28 | 3.2 | 4.8 | 0.00 | 0.00 | 0.00 | 53 | 999.9 |
| 20260504004804 | 8 | 2 | 4.8 | 6.4 | 0.00 | 0.00 | 0.00 | 51 | 999.9 |
| 20260504004301 | 8 | 23 | 3.2 | 6.4 | 0.00 | 0.00 | 0.00 | 50 | 1000.0 |
| 20260504003757 | 8 | 46 | 0.0 | 4.8 | 0.00 | 0.00 | 0.00 | 50 | 999.7 |
| 20260504003254 | 8 | 347 | 1.6 | 3.2 | 0.00 | 0.00 | 0.00 | 51 | 999.8 |
| 20260504002751 | 8 | 47 | 0.0 | 4.8 | 0.00 | 0.00 | 0.00 | 50 | 999.7 |
| 20260504002249 | 9 | 0 | 3.2 | 6.4 | 0.00 | 0.00 | 0.00 | 49 | 999.8 |
| 20260504001746 | 9 | 7 | 6.4 | 8.0 | 0.00 | 0.00 | 0.00 | 48 | 999.7 |
| 20260504001243 | 9 | 350 | 4.8 | 6.4 | 0.00 | 0.00 | 0.00 | 48 | 999.6 |
| 20260504000739 | 9 | 9 | 3.2 | 6.4 | 0.00 | 0.00 | 0.00 | 49 | 999.5 |
| 20260504000236 | 9 | 343 | 3.2 | 6.4 | 0.00 | 0.00 | 0.00 | 49 | 999.6 |
| 20260503235735 | 10 | 1 | 3.2 | 6.4 | 0.00 | 0.00 | 0.00 | 48 | 999.2 |
| 20260503235231 | 10 | 354 | 3.2 | 6.4 | 0.00 | 0.00 | 0.00 | 47 | 999.3 |
| 20260503234729 | 10 | 343 | 3.2 | 8.0 | 0.00 | 0.00 | 0.00 | 46 | 999.5 |
| 20260503234227 | 10 | 329 | 6.4 | 9.7 | 0.00 | 0.00 | 0.00 | 45 | 999.4 |
| 20260503233724 | 10 | 17 | 6.4 | 9.7 | 0.00 | 0.00 | 0.00 | 44 | 999.3 |
| 20260503233219 | 10 | 4 | 3.2 | 8.0 | 0.00 | 0.00 | 0.00 | 44 | 999.2 |
| 20260503232716 | 10 | 320 | 8.0 | 16.1 | 0.00 | 0.00 | 0.00 | 42 | 999.1 |
| 20260503232213 | 10 | 357 | 6.4 | 6.4 | 0.00 | 0.00 | 0.00 | 44 | 999.1 |
| 20260503231712 | 11 | 6 | 4.8 | 11.3 | 0.00 | 0.00 | 0.00 | 41 | 999.1 |
| 20260503231208 | 11 | 322 | 8.0 | 11.3 | 0.00 | 0.00 | 0.00 | 41 | 999.0 |
| 20260503230704 | 11 | 315 | 11.3 | 20.9 | 0.00 | 0.00 | 0.00 | 39 | 999.0 |
| 20260503230202 | 11 | 337 | 6.4 | 12.9 | 0.00 | 0.00 | 0.00 | 41 | 998.9 |
| 20260503225659 | 11 | 238 | 6.4 | 11.3 | 0.00 | 0.00 | 0.00 | 40 | 998.7 |
| 20260503225159 | 11 | 315 | 3.2 | 12.9 | 0.00 | 0.00 | 0.00 | 38 | 998.8 |
| 20260503224657 | 11 | 333 | 6.4 | 12.9 | 0.00 | 0.00 | 0.00 | 38 | 998.5 |
| 20260503224154 | 11 | 287 | 4.8 | 16.1 | 0.00 | 0.00 | 0.00 | 37 | 998.6 |
| 20260503223652 | 12 | 346 | 6.4 | 9.7 | 0.00 | 0.00 | 0.00 | 37 | 998.4 |
| 20260503223149 | 12 | 340 | 4.8 | 8.0 | 0.00 | 0.00 | 0.00 | 37 | 998.5 |
| 20260503222646 | 12 | 99 | 1.6 | 6.4 | 0.00 | 0.00 | 0.00 | 36 | 998.6 |
| 20260503222144 | 13 | 341 | 11.3 | 16.1 | 0.00 | 0.00 | 0.00 | 35 | 998.4 |
| 20260503221642 | 12 | 105 | 3.2 | 17.7 | 0.00 | 0.00 | 0.00 | 34 | 998.5 |
| 20260503221139 | 13 | 273 | 6.4 | 20.9 | 0.00 | 0.00 | 0.00 | 34 | 998.3 |
| 20260503220635 | 13 | 353 | 14.5 | 14.5 | 0.00 | 0.00 | 0.00 | 33 | 998.4 |
| 20260503220132 | 13 | 329 | 8.0 | 14.5 | 0.00 | 0.00 | 0.00 | 34 | 998.2 |
| 20260503215630 | 13 | 339 | 16.1 | 19.3 | 0.00 | 0.00 | 0.00 | 33 | 998.4 |
| 20260503215126 | 13 | 325 | 4.8 | 25.7 | 0.00 | 0.00 | 0.00 | 33 | 998.4 |
| 20260503214625 | 13 | 328 | 6.4 | 14.5 | 0.00 | 0.00 | 0.00 | 35 | 998.3 |
| 20260503214120 | 12 | 10 | 8.0 | 8.0 | 0.00 | 0.00 | 0.00 | 34 | 998.4 |
| 20260503213615 | 12 | 268 | 4.8 | 8.0 | 0.00 | 0.00 | 0.00 | 33 | 998.4 |
| 20260503213110 | 12 | 324 | 11.3 | 22.5 | 0.00 | 0.00 | 0.00 | 34 | 998.5 |
| 20260503212608 | 13 | 316 | 1.6 | 32.2 | 0.00 | 0.00 | 0.00 | 32 | 998.4 |
| 20260503212105 | 13 | 252 | 6.4 | 16.1 | 0.00 | 0.00 | 0.00 | 32 | 998.3 |
| 20260503211603 | 13 | 266 | 6.4 | 17.7 | 0.00 | 0.00 | 0.00 | 34 | 998.4 |
| 20260503211058 | 13 | 283 | 14.5 | 24.1 | 0.00 | 0.00 | 0.00 | 33 | 998.6 |
| 20260503210555 | 13 | 283 | 0.0 | 9.7 | 0.00 | 0.00 | 0.00 | 34 | 998.5 |
| 20260503210050 | 13 | 11 | 8.0 | 14.5 | 0.00 | 0.00 | 0.00 | 33 | 998.4 |
| 20260503205547 | 13 | 321 | 6.4 | 12.9 | 0.00 | 0.00 | 0.00 | 33 | 998.5 |
| 20260503205043 | 13 | 232 | 9.7 | 20.9 | 0.00 | 0.00 | 0.00 | 34 | 998.3 |
| 20260503204540 | 13 | 254 | 4.8 | 12.9 | 0.00 | 0.00 | 0.00 | 37 | 998.7 |
| 20260503204037 | 13 | 312 | 12.9 | 17.7 | 0.00 | 0.00 | 0.00 | 34 | 998.6 |
| 20260503203534 | 13 | 234 | 9.7 | 16.1 | 0.00 | 0.00 | 0.00 | 34 | 998.8 |
| 20260503203031 | 13 | 290 | 6.4 | 14.5 | 0.00 | 0.00 | 0.00 | 32 | 998.8 |
| 20260503202529 | 13 | 328 | 14.5 | 19.3 | 0.00 | 0.00 | 0.00 | 33 | 998.5 |
| 20260503202027 | 12 | 352 | 9.7 | 24.1 | 0.00 | 0.00 | 0.00 | 37 | 998.7 |
| 20260503201520 | 13 | 224 | 16.1 | 22.5 | 0.00 | 0.00 | 0.00 | 33 | 998.7 |
| 20260503201017 | 12 | 303 | 6.4 | 25.7 | 0.00 | 0.00 | 0.00 | 39 | 998.6 |
| 20260503200512 | 13 | 340 | 6.4 | 19.3 | 0.00 | 0.00 | 0.00 | 35 | 998.7 |
| 20260503200009 | 12 | 274 | 8.0 | 20.9 | 0.00 | 0.00 | 0.00 | 38 | 998.8 |
| 20260503195506 | 13 | 331 | 12.9 | 16.1 | 0.00 | 0.00 | 0.00 | 37 | 999.0 |
| 20260503194957 | 12 | 331 | 6.4 | 14.5 | 0.00 | 0.00 | 0.00 | 38 | 998.8 |
| 20260503194455 | 13 | 322 | 8.0 | 14.5 | 0.00 | 0.00 | 0.00 | 37 | 999.1 |
| 20260503193955 | 12 | 328 | 6.4 | 22.5 | 0.00 | 0.00 | 0.00 | 38 | 999.2 |
| 20260503193451 | 12 | 313 | 6.4 | 19.3 | 0.00 | 0.00 | 0.00 | 40 | 999.1 |
| 20260503192946 | 12 | 343 | 4.8 | 12.9 | 0.00 | 0.00 | 0.00 | 41 | 999.2 |
| 20260503192443 | 12 | 11 | 3.2 | 24.1 | 0.00 | 0.00 | 0.00 | 41 | 999.5 |
| 20260503191938 | 12 | 213 | 16.1 | 20.9 | 0.00 | 0.00 | 0.00 | 39 | 999.4 |
| 20260503191436 | 12 | 352 | 8.0 | 14.5 | 0.00 | 0.00 | 0.00 | 42 | 999.5 |
| 20260503190932 | 11 | 246 | 1.6 | 20.9 | 0.00 | 0.00 | 0.00 | 43 | 999.5 |
| 20260503190430 | 10 | 317 | 4.8 | 12.9 | 0.00 | 0.00 | 0.00 | 41 | 999.4 |
| 20260503185927 | 11 | 330 | 6.4 | 20.9 | 0.00 | 0.00 | 0.00 | 43 | 999.7 |
| 20260503185423 | 10 | 253 | 4.8 | 14.5 | 0.00 | 0.00 | 0.00 | 43 | 999.7 |
| 20260503184922 | 11 | 325 | 9.7 | 14.5 | 0.00 | 0.00 | 0.00 | 41 | 999.7 |
| 20260503184419 | 11 | 10 | 6.4 | 11.3 | 0.00 | 0.00 | 0.00 | 39 | 1000.0 |
| 20260503183916 | 11 | 306 | 6.4 | 14.5 | 0.00 | 0.00 | 0.00 | 43 | 999.9 |
| 20260503183412 | 10 | 341 | 9.7 | 14.5 | 0.00 | 0.00 | 0.00 | 41 | 1000.1 |
| 20260503182909 | 11 | 356 | 14.5 | 24.1 | 0.00 | 0.00 | 0.00 | 40 | 1000.0 |
| 20260503182409 | 11 | 303 | 6.4 | 14.5 | 0.00 | 0.00 | 0.00 | 45 | 1000.2 |
| 20260503181900 | 10 | 252 | 12.9 | 19.3 | 0.00 | 0.00 | 0.00 | 42 | 1000.2 |
| 20260503181357 | 10 | 220 | 6.4 | 19.3 | 0.00 | 0.00 | 0.00 | 44 | 1000.0 |
| 20260503180853 | 10 | 262 | 8.0 | 14.5 | 0.00 | 0.00 | 0.00 | 44 | 999.9 |
| 20260503180351 | 10 | 354 | 9.7 | 22.5 | 0.00 | 0.00 | 0.00 | 42 | 1000.0 |
| 20260503175847 | 10 | 0 | 4.8 | 20.9 | 0.00 | 0.00 | 0.00 | 46 | 1000.2 |
| 20260503175345 | 11 | 328 | 8.0 | 16.1 | 0.00 | 0.00 | 0.00 | 48 | 1000.1 |
| 20260503174840 | 10 | 265 | 9.7 | 16.1 | 0.00 | 0.00 | 0.00 | 46 | 1000.3 |
| 20260503174339 | 10 | 325 | 8.0 | 14.5 | 0.00 | 0.00 | 0.00 | 46 | 1000.4 |
| 20260503173833 | 10 | 338 | 4.8 | 8.0 | 0.00 | 0.00 | 0.00 | 47 | 1000.3 |
| 20260503173330 | 10 | 343 | 6.4 | 9.7 | 0.00 | 0.00 | 0.00 | 50 | 1000.3 |
| 20260503172827 | 9 | 201 | 6.4 | 17.7 | 0.00 | 0.00 | 0.00 | 48 | 1000.6 |
| 20260503172325 | 9 | 319 | 4.8 | 9.7 | 0.00 | 0.00 | 0.00 | 49 | 1000.6 |
| 20260503171820 | 8 | 258 | 6.4 | 12.9 | 0.00 | 0.00 | 0.00 | 52 | 1000.4 |
| 20260503171318 | 8 | 335 | 14.5 | 17.7 | 0.00 | 0.00 | 0.00 | 50 | 1000.5 |
| 20260503170815 | 9 | 207 | 6.4 | 9.7 | 0.00 | 0.00 | 0.00 | 52 | 1000.6 |
| 20260503170311 | 8 | 339 | 11.3 | 14.5 | 0.00 | 0.00 | 0.00 | 50 | 1000.7 |
| 20260503150703 | 7 | 29 | 4.8 | 16.1 | 0.00 | 0.00 | 0.00 | 62 | 1001.1 |
| 20260503150200 | 7 | 319 | 3.2 | 12.9 | 0.00 | 0.00 | 0.00 | 62 | 1001.1 |
| 20260503140124 | 8 | 209 | 4.8 | 17.7 | 0.00 | 0.00 | 0.00 | 58 | 1001.1 |
| 20260503131053 | 6 | 92 | 0.0 | 9.7 | 0.00 | 0.00 | 0.00 | 71 | 1001.7 |
| 20260503130550 | 6 | 331 | 4.8 | 8.0 | 0.00 | 0.00 | 0.00 | 71 | 1001.5 |
| 20260503110441 | 3 | 330 | 3.2 | 6.4 | 0.00 | 0.00 | 0.00 | 82 | 1001.3 |
| 20260503090333 | 2 | 47 | 3.2 | 4.8 | 0.00 | 0.00 | 0.00 | 84 | 1000.6 |
| 20260503081300 | 2 | 16 | 3.2 | 3.2 | 0.00 | 0.00 | 0.00 | 85 | 1001.1 |
| 20260503080755 | 2 | 27 | 1.6 | 3.2 | 0.00 | 0.00 | 0.00 | 85 | 1001.1 |
| 20260503080253 | 2 | 356 | 3.2 | 4.8 | 0.00 | 0.00 | 0.00 | 85 | 1001.0 |
| 20260503072729 | 2 | 41 | 3.2 | 3.2 | 0.00 | 0.00 | 0.00 | 84 | 1001.4 |
| 20260503072226 | 2 | 38 | 3.2 | 3.2 | 0.00 | 0.00 | 0.00 | 84 | 1001.4 |
| 20260503071723 | 1 | 18 | 1.6 | 3.2 | 0.00 | 0.00 | 0.00 | 84 | 1001.3 |
| 20260503071220 | 1 | 41 | 1.6 | 3.2 | 0.00 | 0.00 | 0.00 | 84 | 1001.3 |
| 20260503070716 | 1 | 42 | 3.2 | 4.8 | 0.00 | 0.00 | 0.00 | 84 | 1001.3 |